THY5NE EFHK-ENSB

Flight info

Callsign THY5NE
Flight time 2h 41m
Altitude 32000
Route NEPEK Y361 NISVI DCT AMASU DCT GIDKI DCT OGTUD DCT SUTEV DCT RIXEM DCT KOMUX/N0460F330 P600 PITOL/N0460F340 DCT LUNEV
Aircraft A21N/M-SDE2E3FGHIJ1RWXY/LB1

Departure

Time 2026-05-04 18:15
Airport Helsinki Vantaa Airport (EFHK)

Arrival

Time 2026-05-04 20:56
Airport Svalbard Airport, Longyear (ENSB)
Time Latitude Longitude Altitude Speed Heading
2026-05-04 16:58 60.31420 24.95501 169 ft 0 kts 137°
2026-05-04 18:03 60.31436 24.95472 169 ft 4 kts 135°
2026-05-04 18:03 60.31454 24.95431 169 ft 4 kts 123°
2026-05-04 18:03 60.31463 24.95386 169 ft 4 kts 80°
2026-05-04 18:03 60.31459 24.95367 169 ft 1 kts 39°
2026-05-04 18:06 60.31460 24.95369 169 ft 2 kts 40°
2026-05-04 18:07 60.31478 24.95414 169 ft 7 kts 55°
2026-05-04 18:07 60.31510 24.95499 169 ft 8 kts 47°
2026-05-04 18:07 60.31551 24.95583 169 ft 9 kts 46°
2026-05-04 18:07 60.31596 24.95666 169 ft 9 kts 25°
2026-05-04 18:08 60.31654 24.95622 169 ft 10 kts 317°
2026-05-04 18:08 60.31712 24.95543 169 ft 10 kts 353°
2026-05-04 18:08 60.31770 24.95630 169 ft 11 kts 45°
2026-05-04 18:08 60.31826 24.95742 169 ft 12 kts 46°
2026-05-04 18:09 60.31940 24.95980 169 ft 10 kts 23°
2026-05-04 18:09 60.32017 24.95870 169 ft 12 kts 317°
2026-05-04 18:10 60.32076 24.95751 168 ft 12 kts 313°
2026-05-04 18:10 60.32141 24.95632 168 ft 13 kts 319°
2026-05-04 18:10 60.32209 24.95507 169 ft 13 kts 315°
2026-05-04 18:10 60.32280 24.95376 170 ft 14 kts 319°
2026-05-04 18:11 60.32361 24.95259 172 ft 15 kts 339°
2026-05-04 18:11 60.32462 24.95197 175 ft 16 kts 344°
2026-05-04 18:11 60.32575 24.95128 178 ft 17 kts 342°
2026-05-04 18:11 60.32692 24.95051 182 ft 18 kts 341°
2026-05-04 18:12 60.32816 24.94969 190 ft 19 kts 343°
2026-05-04 18:12 60.32927 24.94864 190 ft 18 kts 315°
2026-05-04 18:12 60.33018 24.94688 196 ft 15 kts 317°
2026-05-04 18:12 60.33074 24.94585 199 ft 11 kts 317°
2026-05-04 18:13 60.33126 24.94487 203 ft 11 kts 308°
2026-05-04 18:13 60.33120 24.94400 200 ft 0 kts 235°
2026-05-04 18:14 60.33112 24.94377 202 ft 12 kts 235°
2026-05-04 18:14 60.32904 24.93938 188 ft 78 kts 226°
2026-05-04 18:14 60.32386 24.92794 175 ft 142 kts 227°
2026-05-04 18:15 60.30908 24.89626 1270 ft 153 kts 229°
2026-05-04 18:15 60.29894 24.86006 2442 ft 156 kts 267°
2026-05-04 18:15 60.30079 24.83772 2808 ft 171 kts 290°
2026-05-04 18:16 60.30783 24.81678 3205 ft 189 kts 306°
2026-05-04 18:16 60.31444 24.79319 3618 ft 202 kts 290°
2026-05-04 18:16 60.32019 24.76601 3934 ft 222 kts 295°
2026-05-04 18:17 60.34045 24.71620 5091 ft 250 kts 328°
2026-05-04 18:17 60.35723 24.70441 5804 ft 260 kts 340°
2026-05-04 18:17 60.39279 24.68625 7208 ft 267 kts 339°
2026-05-04 18:18 60.41090 24.67640 7887 ft 271 kts 338°
2026-05-04 18:18 60.42917 24.66623 8580 ft 275 kts 338°
2026-05-04 18:18 60.44766 24.65581 9234 ft 278 kts 337°
2026-05-04 18:18 60.46651 24.64508 9811 ft 285 kts 337°
2026-05-04 18:19 60.50695 24.62181 10350 ft 320 kts 338°
2026-05-04 18:19 60.52894 24.60913 10584 ft 337 kts 338°
2026-05-04 18:19 60.55219 24.59575 10803 ft 354 kts 338°
2026-05-04 18:20 60.57651 24.58172 11025 ft 370 kts 338°
2026-05-04 18:20 60.60132 24.56740 11394 ft 380 kts 338°
2026-05-04 18:20 60.62687 24.55269 11937 ft 384 kts 338°
2026-05-04 18:20 60.65270 24.53779 12486 ft 387 kts 338°
2026-05-04 18:21 60.67875 24.52265 13010 ft 391 kts 338°
2026-05-04 18:21 60.70508 24.50734 13504 ft 395 kts 338°
2026-05-04 18:21 60.73163 24.49163 13966 ft 398 kts 336°
2026-05-04 18:21 60.75689 24.46984 14423 ft 393 kts 326°
2026-05-04 18:22 60.78108 24.44294 14901 ft 395 kts 324°
2026-05-04 18:22 60.80512 24.41546 15417 ft 397 kts 324°
2026-05-04 18:22 60.82915 24.38802 15929 ft 400 kts 324°
2026-05-04 18:22 60.85361 24.36024 16447 ft 403 kts 324°
2026-05-04 18:23 60.87826 24.33228 16962 ft 407 kts 324°
2026-05-04 18:23 60.90315 24.30405 17466 ft 410 kts 324°
2026-05-04 18:23 60.92821 24.27558 17999 ft 413 kts 324°
2026-05-04 18:23 60.95344 24.24675 18434 ft 415 kts 324°
2026-05-04 18:24 60.97878 24.21783 18863 ft 418 kts 324°
2026-05-04 18:24 61.00426 24.18867 19296 ft 420 kts 324°
2026-05-04 18:24 61.02994 24.15917 19727 ft 423 kts 324°
2026-05-04 18:24 61.04703 24.13949 20001 ft 424 kts 324°
2026-05-04 18:25 61.07291 24.10982 20405 ft 427 kts 324°
2026-05-04 18:25 61.09897 24.07987 20807 ft 429 kts 324°
2026-05-04 18:25 61.12587 24.05179 21182 ft 438 kts 330°
2026-05-04 18:25 61.16500 24.02697 21692 ft 449 kts 338°
2026-05-04 18:26 61.18552 24.01614 21958 ft 451 kts 339°
2026-05-04 18:26 61.21565 24.00029 22328 ft 453 kts 339°
2026-05-04 18:26 61.24628 23.98396 22703 ft 456 kts 338°
2026-05-04 18:26 61.27717 23.96751 23064 ft 458 kts 338°
2026-05-04 18:27 61.30818 23.95085 23402 ft 461 kts 338°
2026-05-04 18:27 61.33932 23.93386 23734 ft 463 kts 338°
2026-05-04 18:27 61.37053 23.91704 24085 ft 466 kts 338°
2026-05-04 18:27 61.40211 23.90020 24429 ft 468 kts 338°
2026-05-04 18:28 61.43367 23.88334 24758 ft 469 kts 338°
2026-05-04 18:28 61.46535 23.86621 25072 ft 471 kts 338°
2026-05-04 18:28 61.49719 23.84888 25440 ft 472 kts 338°
2026-05-04 18:28 61.52895 23.83159 25846 ft 471 kts 338°
2026-05-04 18:29 61.56062 23.81428 26253 ft 470 kts 338°
2026-05-04 18:29 61.59229 23.79693 26663 ft 470 kts 338°
2026-05-04 18:29 61.62388 23.77965 27053 ft 469 kts 338°
2026-05-04 18:29 61.65505 23.76247 27463 ft 468 kts 337°
2026-05-04 18:30 61.71802 23.72770 28225 ft 467 kts 337°
2026-05-04 18:30 61.74939 23.71039 28594 ft 467 kts 337°
2026-05-04 18:30 61.78091 23.69294 28969 ft 466 kts 337°
2026-05-04 18:31 61.81231 23.67538 29350 ft 466 kts 337°
2026-05-04 18:31 61.84366 23.65785 29690 ft 465 kts 336°
2026-05-04 18:31 61.87495 23.64040 29961 ft 466 kts 337°
2026-05-04 18:31 61.90637 23.62291 30219 ft 466 kts 337°
2026-05-04 18:32 61.93767 23.60543 30491 ft 465 kts 337°
2026-05-04 18:32 61.96901 23.58788 30711 ft 465 kts 337°
2026-05-04 18:32 62.00032 23.57025 30971 ft 465 kts 337°
2026-05-04 18:32 62.03132 23.55269 31224 ft 465 kts 337°
2026-05-04 18:33 62.06263 23.53501 31465 ft 465 kts 337°
2026-05-04 18:33 62.09400 23.51723 31601 ft 465 kts 337°
2026-05-04 18:33 62.12527 23.49949 31618 ft 465 kts 337°
2026-05-04 18:34 62.18791 23.46355 31600 ft 465 kts 337°
2026-05-04 18:34 62.25057 23.42785 31579 ft 466 kts 337°
2026-05-04 18:35 62.31297 23.39192 31579 ft 467 kts 337°
2026-05-04 18:35 62.37628 23.35717 31570 ft 474 kts 342°
2026-05-04 18:36 62.44292 23.34658 31573 ft 482 kts 350°
2026-05-04 18:36 62.51005 23.33953 31566 ft 483 kts 350°
2026-05-04 18:37 62.57720 23.33219 31562 ft 484 kts 350°
2026-05-04 18:37 62.64447 23.32472 31563 ft 484 kts 350°
2026-05-04 18:38 62.71171 23.31700 31562 ft 484 kts 349°
2026-05-04 18:38 62.77866 23.30947 31558 ft 485 kts 350°
2026-05-04 18:39 62.84612 23.30207 31557 ft 485 kts 350°
2026-05-04 18:39 62.91372 23.29455 31558 ft 486 kts 350°
2026-05-04 18:40 62.98140 23.28700 31867 ft 487 kts 350°
2026-05-04 18:40 63.01522 23.28312 32127 ft 486 kts 350°
2026-05-04 18:40 63.04907 23.27919 32375 ft 485 kts 350°
2026-05-04 18:40 63.08238 23.27535 32613 ft 484 kts 350°
2026-05-04 18:41 63.11601 23.27148 32841 ft 484 kts 350°
2026-05-04 18:41 63.14964 23.26763 33058 ft 483 kts 350°
2026-05-04 18:41 63.18323 23.26384 33283 ft 483 kts 351°
2026-05-04 18:41 63.21675 23.26002 33480 ft 482 kts 351°
2026-05-04 18:42 63.25029 23.25610 33595 ft 483 kts 351°
2026-05-04 18:42 63.31742 23.24827 33559 ft 482 kts 351°
2026-05-04 18:43 63.38449 23.24044 33544 ft 483 kts 351°
2026-05-04 18:43 63.45130 23.23273 33542 ft 484 kts 351°
2026-05-04 18:44 63.51855 23.22497 33538 ft 484 kts 351°
2026-05-04 18:44 63.58592 23.21708 33528 ft 484 kts 351°
2026-05-04 18:45 63.65319 23.20819 33524 ft 482 kts 347°
2026-05-04 18:45 63.71823 23.17835 33528 ft 475 kts 340°
2026-05-04 18:46 63.78251 23.14547 33524 ft 476 kts 340°
2026-05-04 18:46 63.84707 23.11222 33530 ft 476 kts 340°
2026-05-04 18:47 63.91165 23.07874 33531 ft 475 kts 340°
2026-05-04 18:47 63.97619 23.04520 33524 ft 475 kts 340°
2026-05-04 18:48 64.04059 23.01172 33521 ft 474 kts 340°
2026-05-04 18:48 64.10494 22.97785 33517 ft 474 kts 340°
2026-05-04 18:49 64.16926 22.94394 33512 ft 474 kts 340°
2026-05-04 18:49 64.23314 22.91019 33509 ft 473 kts 340°
2026-05-04 18:50 64.29729 22.87607 33505 ft 473 kts 340°
2026-05-04 18:50 64.36131 22.84189 33504 ft 472 kts 340°
2026-05-04 18:51 64.42536 22.80736 33505 ft 472 kts 340°
2026-05-04 18:51 64.48899 22.77294 33498 ft 472 kts 340°
2026-05-04 18:52 64.55287 22.73847 33492 ft 472 kts 341°
2026-05-04 18:52 64.61726 22.70756 33497 ft 472 kts 342°
2026-05-04 18:53 64.68167 22.67659 33486 ft 472 kts 342°
2026-05-04 18:53 64.74591 22.64533 33487 ft 472 kts 342°
2026-05-04 18:54 64.81039 22.61406 33484 ft 472 kts 342°
2026-05-04 18:54 64.87423 22.58244 33477 ft 472 kts 342°
2026-05-04 18:55 64.93848 22.55087 33467 ft 471 kts 342°
2026-05-04 18:55 65.03490 22.50276 33470 ft 471 kts 342°
2026-05-04 18:56 65.09921 22.47091 33468 ft 471 kts 342°
2026-05-04 18:56 65.16299 22.43895 33466 ft 471 kts 342°
2026-05-04 18:57 65.22716 22.40684 33462 ft 471 kts 343°
2026-05-04 18:57 65.29121 22.37459 33466 ft 470 kts 342°
2026-05-04 18:58 65.35538 22.34197 33463 ft 470 kts 343°
2026-05-04 18:58 65.41954 22.30949 33464 ft 471 kts 343°
2026-05-04 18:59 65.48363 22.27675 33467 ft 471 kts 343°
2026-05-04 18:59 65.54731 22.24388 33469 ft 471 kts 343°
2026-05-04 19:00 65.61143 22.21088 33462 ft 471 kts 343°
2026-05-04 19:00 65.67553 22.17743 33464 ft 471 kts 343°
2026-05-04 19:01 65.73951 22.14406 33458 ft 470 kts 343°
2026-05-04 19:01 65.80370 22.11043 33449 ft 470 kts 343°
2026-05-04 19:02 65.86722 22.07704 33444 ft 470 kts 343°
2026-05-04 19:02 65.93116 22.04337 33441 ft 470 kts 343°
2026-05-04 19:03 65.99518 22.00924 33439 ft 470 kts 343°
2026-05-04 19:03 66.05910 21.97508 33440 ft 470 kts 343°
2026-05-04 19:04 66.12290 21.94068 33433 ft 469 kts 343°
2026-05-04 19:04 66.18646 21.90617 33437 ft 469 kts 343°
2026-05-04 19:05 66.25034 21.87158 33437 ft 469 kts 343°
2026-05-04 19:05 66.31414 21.83676 33436 ft 469 kts 343°
2026-05-04 19:06 66.37795 21.80158 33437 ft 469 kts 343°
2026-05-04 19:06 66.44144 21.76657 33429 ft 469 kts 343°
2026-05-04 19:07 66.50523 21.73108 33430 ft 469 kts 343°
2026-05-04 19:07 66.56893 21.69549 33428 ft 469 kts 343°
2026-05-04 19:08 66.63272 21.65968 33422 ft 469 kts 343°
2026-05-04 19:08 66.69639 21.62378 33420 ft 469 kts 343°
2026-05-04 19:09 66.75969 21.58790 33419 ft 469 kts 343°
2026-05-04 19:09 66.82340 21.55145 33416 ft 469 kts 344°
2026-05-04 19:10 66.88718 21.51501 33407 ft 469 kts 344°
2026-05-04 19:10 66.95057 21.47846 33407 ft 468 kts 343°
2026-05-04 19:11 67.00343 21.44790 33406 ft 468 kts 344°
2026-05-04 19:11 67.07780 21.40450 33401 ft 468 kts 344°
2026-05-04 19:12 67.17271 21.34879 33397 ft 467 kts 344°
2026-05-04 19:13 67.23611 21.31137 33402 ft 467 kts 344°
2026-05-04 19:13 67.28871 21.28018 33405 ft 467 kts 344°
2026-05-04 19:14 67.35220 21.24233 33398 ft 467 kts 344°
2026-05-04 19:14 67.41549 21.20447 33393 ft 467 kts 344°
2026-05-04 19:15 67.47881 21.16620 33387 ft 467 kts 344°
2026-05-04 19:15 67.55233 21.12166 33389 ft 467 kts 344°
2026-05-04 19:16 67.60499 21.08951 33385 ft 467 kts 344°
2026-05-04 19:16 67.66835 21.05068 33386 ft 467 kts 344°
2026-05-04 19:17 67.73158 21.01168 33383 ft 467 kts 344°
2026-05-04 19:17 67.79482 20.97246 33386 ft 467 kts 344°
2026-05-04 19:18 67.85815 20.93300 33386 ft 467 kts 344°
2026-05-04 19:18 67.92142 20.89332 33389 ft 467 kts 344°
2026-05-04 19:19 67.98462 20.85348 33380 ft 467 kts 344°
2026-05-04 19:19 68.04745 20.81364 33390 ft 467 kts 344°
2026-05-04 19:20 68.11062 20.77339 33394 ft 467 kts 344°
2026-05-04 19:20 68.17393 20.73275 33399 ft 467 kts 344°
2026-05-04 19:21 68.23709 20.69200 33403 ft 466 kts 344°
2026-05-04 19:21 68.30024 20.65116 33414 ft 466 kts 344°
2026-05-04 19:22 68.36340 20.61003 33410 ft 466 kts 344°
2026-05-04 19:22 68.42643 20.56872 33413 ft 466 kts 344°
2026-05-04 19:23 68.48945 20.52711 33419 ft 466 kts 344°
2026-05-04 19:23 68.55213 20.48553 33428 ft 466 kts 344°
2026-05-04 19:24 68.61513 20.44356 33427 ft 466 kts 344°
2026-05-04 19:24 68.67809 20.40127 33423 ft 466 kts 344°
2026-05-04 19:25 68.74118 20.35863 33434 ft 465 kts 344°
2026-05-04 19:25 68.80374 20.31303 33438 ft 464 kts 340°
2026-05-04 19:26 68.86462 20.25675 33440 ft 464 kts 339°
2026-05-04 19:26 68.92590 20.19963 33447 ft 464 kts 339°
2026-05-04 19:27 68.98704 20.14227 33450 ft 464 kts 339°
2026-05-04 19:27 69.04816 20.08462 33456 ft 464 kts 339°
2026-05-04 19:28 69.10931 20.02662 33456 ft 463 kts 339°
2026-05-04 19:28 69.17048 19.96818 33467 ft 463 kts 339°
2026-05-04 19:29 69.23114 19.90987 33459 ft 463 kts 340°
2026-05-04 19:29 69.29227 19.85101 33466 ft 463 kts 339°
2026-05-04 19:30 69.35322 19.79185 33470 ft 463 kts 339°
2026-05-04 19:30 69.41409 19.73221 33470 ft 463 kts 339°
2026-05-04 19:31 69.47462 19.67264 33479 ft 463 kts 339°
2026-05-04 19:31 69.53547 19.61264 33484 ft 463 kts 340°
2026-05-04 19:32 69.59630 19.55216 33483 ft 462 kts 340°
2026-05-04 19:32 69.65706 19.49134 33491 ft 462 kts 339°
2026-05-04 19:33 69.71781 19.43008 33491 ft 462 kts 340°
2026-05-04 19:33 69.77852 19.36814 33493 ft 462 kts 339°
2026-05-04 19:34 69.83910 19.30550 33492 ft 462 kts 339°
2026-05-04 19:34 69.89990 19.24343 33492 ft 463 kts 340°
2026-05-04 19:35 69.96068 19.18156 33496 ft 463 kts 339°
2026-05-04 19:35 70.02095 19.11908 33500 ft 463 kts 339°
2026-05-04 19:36 70.08168 19.05564 33505 ft 463 kts 339°
2026-05-04 19:36 70.14240 18.99172 33505 ft 463 kts 339°
2026-05-04 19:37 70.20315 18.92749 33507 ft 463 kts 339°
2026-05-04 19:37 70.26378 18.86268 33514 ft 463 kts 339°
2026-05-04 19:38 70.32452 18.79783 33516 ft 463 kts 339°
2026-05-04 19:38 70.38478 18.73287 33524 ft 463 kts 339°
2026-05-04 19:39 70.44535 18.66726 33527 ft 463 kts 339°
2026-05-04 19:39 70.50594 18.60103 33529 ft 463 kts 339°
2026-05-04 19:40 70.56668 18.53541 33535 ft 464 kts 341°
2026-05-04 19:40 70.62748 18.47498 33543 ft 463 kts 341°
2026-05-04 19:41 70.68892 18.41359 33543 ft 463 kts 341°
2026-05-04 19:41 70.75015 18.35187 33544 ft 463 kts 341°
2026-05-04 19:42 70.81138 18.28980 33551 ft 463 kts 341°
2026-05-04 19:42 70.87206 18.22804 33557 ft 462 kts 341°
2026-05-04 19:43 70.93318 18.16527 33558 ft 463 kts 341°
2026-05-04 19:43 70.99426 18.10198 33561 ft 462 kts 341°
2026-05-04 19:44 71.05518 18.03851 33567 ft 463 kts 341°
2026-05-04 19:44 71.11623 17.97469 33569 ft 463 kts 341°
2026-05-04 19:45 71.17716 17.91060 33574 ft 462 kts 341°
2026-05-04 19:45 71.23778 17.84629 33574 ft 463 kts 341°
2026-05-04 19:46 71.29868 17.78060 33581 ft 463 kts 341°
2026-05-04 19:46 71.35964 17.71510 33579 ft 463 kts 341°
2026-05-04 19:47 71.42055 17.64961 33582 ft 463 kts 341°
2026-05-04 19:47 71.48121 17.58361 33585 ft 463 kts 341°
2026-05-04 19:48 71.54194 17.51621 33586 ft 463 kts 341°
2026-05-04 19:48 71.60270 17.44867 33590 ft 463 kts 341°
2026-05-04 19:49 71.66353 17.38075 33592 ft 463 kts 341°
2026-05-04 19:49 71.72394 17.31304 33596 ft 463 kts 341°
2026-05-04 19:50 71.78474 17.24469 33596 ft 462 kts 341°
2026-05-04 19:50 71.84539 17.17634 33598 ft 463 kts 342°
2026-05-04 19:51 71.90634 17.10786 33601 ft 463 kts 341°
2026-05-04 19:51 71.96710 17.03816 33605 ft 463 kts 341°
2026-05-04 19:52 72.02936 16.98850 33608 ft 461 kts 354°
2026-05-04 19:52 72.09272 16.96495 33607 ft 461 kts 355°
2026-05-04 19:53 72.15651 16.94113 33609 ft 460 kts 355°
2026-05-04 19:53 72.22023 16.91692 33618 ft 460 kts 355°
2026-05-04 19:54 72.28383 16.89255 33620 ft 460 kts 355°
2026-05-04 19:54 72.34710 16.86812 33624 ft 460 kts 355°
2026-05-04 19:55 72.41058 16.84346 33627 ft 460 kts 355°
2026-05-04 19:55 72.47409 16.81863 33630 ft 459 kts 355°
2026-05-04 19:56 72.53763 16.79370 33639 ft 459 kts 355°
2026-05-04 19:56 72.60110 16.76843 33637 ft 459 kts 355°
2026-05-04 19:57 72.66462 16.74297 33647 ft 458 kts 355°
2026-05-04 19:57 72.72762 16.71761 33648 ft 458 kts 355°
2026-05-04 19:58 72.79097 16.69188 33649 ft 458 kts 355°
2026-05-04 19:58 72.85425 16.66617 33662 ft 457 kts 355°
2026-05-04 19:59 72.90674 16.64456 33666 ft 457 kts 355°
2026-05-04 19:59 72.98029 16.61412 33674 ft 458 kts 355°
2026-05-04 20:00 73.04354 16.58755 33676 ft 457 kts 355°
2026-05-04 20:00 73.10677 16.56068 33686 ft 457 kts 355°
2026-05-04 20:01 73.15929 16.53785 33694 ft 457 kts 355°
2026-05-04 20:01 73.22248 16.51121 33704 ft 457 kts 355°
2026-05-04 20:02 73.28570 16.48398 33702 ft 458 kts 355°
2026-05-04 20:02 73.34888 16.45617 33709 ft 457 kts 355°
2026-05-04 20:03 73.41215 16.42939 33716 ft 457 kts 355°
2026-05-04 20:03 73.47522 16.40219 33720 ft 457 kts 355°
2026-05-04 20:04 73.53792 16.37443 33733 ft 457 kts 355°
2026-05-04 20:04 73.60102 16.34631 33746 ft 456 kts 355°
2026-05-04 20:05 73.66397 16.31665 33745 ft 456 kts 355°
2026-05-04 20:05 73.72696 16.28796 33751 ft 456 kts 355°
2026-05-04 20:06 73.78980 16.25921 33752 ft 455 kts 355°
2026-05-04 20:06 73.85265 16.23059 33765 ft 455 kts 355°
2026-05-04 20:07 73.91558 16.20141 33766 ft 455 kts 355°
2026-05-04 20:07 73.97831 16.17198 33765 ft 454 kts 355°
2026-05-04 20:08 74.04064 16.14240 33777 ft 454 kts 355°
2026-05-04 20:08 74.10341 16.11291 33787 ft 454 kts 355°
2026-05-04 20:09 74.16604 16.08319 33791 ft 454 kts 355°
2026-05-04 20:09 74.22864 16.05314 33799 ft 453 kts 356°
2026-05-04 20:10 74.29123 16.02275 33800 ft 453 kts 355°
2026-05-04 20:10 74.35385 15.99227 33807 ft 453 kts 355°
2026-05-04 20:11 74.41640 15.96246 33820 ft 453 kts 355°
2026-05-04 20:11 74.47841 15.93216 33823 ft 452 kts 355°
2026-05-04 20:12 74.54075 15.90103 33827 ft 452 kts 355°
2026-05-04 20:12 74.60307 15.86873 33829 ft 452 kts 355°
2026-05-04 20:13 74.66543 15.83661 33839 ft 451 kts 355°
2026-05-04 20:13 74.72732 15.80446 33848 ft 451 kts 355°
2026-05-04 20:14 74.78948 15.77250 33851 ft 450 kts 355°
2026-05-04 20:14 74.85154 15.73994 33854 ft 450 kts 355°
2026-05-04 20:15 74.91360 15.70745 33857 ft 449 kts 355°
2026-05-04 20:15 74.97553 15.67507 33861 ft 449 kts 355°
2026-05-04 20:16 75.03722 15.64319 33867 ft 449 kts 355°
2026-05-04 20:16 75.09910 15.60987 33872 ft 449 kts 355°
2026-05-04 20:17 75.16099 15.57583 33877 ft 449 kts 355°
2026-05-04 20:17 75.22260 15.54199 33880 ft 449 kts 355°
2026-05-04 20:18 75.28447 15.50845 33887 ft 448 kts 355°
2026-05-04 20:18 75.34625 15.47407 33897 ft 447 kts 355°
2026-05-04 20:19 75.40786 15.43974 33897 ft 447 kts 355°
2026-05-04 20:19 75.46953 15.40486 33902 ft 447 kts 354°
2026-05-04 20:20 75.53101 15.36989 33904 ft 446 kts 355°
2026-05-04 20:20 75.59248 15.33442 33923 ft 446 kts 354°
2026-05-04 20:21 75.65392 15.29858 33920 ft 446 kts 354°
2026-05-04 20:21 75.74601 15.24506 33927 ft 446 kts 355°
2026-05-04 20:22 75.80696 15.20893 33936 ft 445 kts 354°
2026-05-04 20:22 75.86823 15.17242 33946 ft 444 kts 355°
2026-05-04 20:23 75.92922 15.13564 33615 ft 441 kts 354°
2026-05-04 20:23 75.95975 15.11715 33308 ft 445 kts 354°
2026-05-04 20:23 75.99050 15.09843 33019 ft 445 kts 355°
2026-05-04 20:24 76.02102 15.07974 32751 ft 443 kts 355°
2026-05-04 20:24 76.05155 15.06099 32487 ft 444 kts 354°
2026-05-04 20:24 76.08210 15.04220 32224 ft 443 kts 354°
2026-05-04 20:24 76.11255 15.02340 31966 ft 440 kts 354°
2026-05-04 20:25 76.14234 15.00484 31694 ft 436 kts 354°
2026-05-04 20:25 76.17232 14.98609 31452 ft 434 kts 354°
2026-05-04 20:25 76.20205 14.96736 31202 ft 430 kts 354°
2026-05-04 20:25 76.23193 14.94840 30948 ft 427 kts 354°
2026-05-04 20:26 76.26092 14.93010 30707 ft 426 kts 355°
2026-05-04 20:26 76.29015 14.91158 30462 ft 422 kts 354°
2026-05-04 20:26 76.31911 14.89305 30214 ft 418 kts 354°
2026-05-04 20:26 76.34790 14.87449 29951 ft 414 kts 354°
2026-05-04 20:27 76.37632 14.85600 29655 ft 412 kts 354°
2026-05-04 20:27 76.40460 14.83749 29359 ft 409 kts 354°
2026-05-04 20:27 76.43270 14.81897 29065 ft 408 kts 354°
2026-05-04 20:27 76.46069 14.80037 28779 ft 405 kts 354°
2026-05-04 20:28 76.48841 14.78180 28489 ft 402 kts 354°
2026-05-04 20:28 76.51567 14.76369 28207 ft 400 kts 354°
2026-05-04 20:28 76.54315 14.74543 27917 ft 398 kts 354°
2026-05-04 20:28 76.57052 14.72707 27665 ft 397 kts 354°
2026-05-04 20:29 76.59770 14.70865 27373 ft 393 kts 354°
2026-05-04 20:29 76.62465 14.69034 27033 ft 391 kts 354°
2026-05-04 20:29 76.65135 14.67221 26649 ft 388 kts 354°
2026-05-04 20:29 76.67795 14.65409 26262 ft 386 kts 354°
2026-05-04 20:30 76.70438 14.63585 25865 ft 383 kts 353°
2026-05-04 20:30 76.73059 14.61773 25477 ft 379 kts 353°
2026-05-04 20:30 76.75655 14.59983 25096 ft 377 kts 353°
2026-05-04 20:30 76.78211 14.58222 24718 ft 375 kts 353°
2026-05-04 20:31 76.80783 14.56441 24349 ft 372 kts 353°
2026-05-04 20:31 76.83323 14.54666 23982 ft 369 kts 353°
2026-05-04 20:31 76.85850 14.52895 23617 ft 365 kts 353°
2026-05-04 20:31 76.88363 14.51121 23234 ft 367 kts 353°
2026-05-04 20:32 76.90883 14.49343 22918 ft 366 kts 353°
2026-05-04 20:32 76.93386 14.47566 22623 ft 362 kts 353°
2026-05-04 20:32 76.95857 14.45799 22276 ft 359 kts 353°
2026-05-04 20:32 76.98322 14.44025 21838 ft 357 kts 353°
2026-05-04 20:33 77.00767 14.42267 21384 ft 354 kts 353°
2026-05-04 20:33 77.03193 14.40516 20923 ft 351 kts 353°
2026-05-04 20:33 77.05575 14.38801 20469 ft 349 kts 353°
2026-05-04 20:33 77.07957 14.37082 20051 ft 347 kts 353°
2026-05-04 20:34 77.10334 14.35351 19634 ft 345 kts 353°
2026-05-04 20:34 77.12696 14.33624 19222 ft 343 kts 353°
2026-05-04 20:34 77.15044 14.31898 18824 ft 340 kts 353°
2026-05-04 20:34 77.17377 14.30176 18484 ft 340 kts 353°
2026-05-04 20:35 77.19710 14.28460 18191 ft 338 kts 353°
2026-05-04 20:35 77.22028 14.26725 17890 ft 337 kts 353°
2026-05-04 20:35 77.24335 14.24990 17611 ft 336 kts 353°
2026-05-04 20:35 77.26632 14.23265 17327 ft 333 kts 353°
2026-05-04 20:36 77.28922 14.21548 17049 ft 333 kts 353°
2026-05-04 20:36 77.31204 14.19835 16777 ft 331 kts 353°
2026-05-04 20:36 77.33469 14.18152 16513 ft 330 kts 353°
2026-05-04 20:36 77.35703 14.16480 16235 ft 328 kts 353°
2026-05-04 20:37 77.37949 14.14786 15963 ft 327 kts 353°
2026-05-04 20:37 77.40190 14.13090 15700 ft 326 kts 353°
2026-05-04 20:37 77.42422 14.11375 15438 ft 324 kts 353°
2026-05-04 20:37 77.44648 14.09666 15172 ft 323 kts 353°
2026-05-04 20:38 77.46865 14.07963 14904 ft 323 kts 353°
2026-05-04 20:38 77.49084 14.06249 14666 ft 322 kts 354°
2026-05-04 20:38 77.51291 14.04527 14417 ft 320 kts 353°
2026-05-04 20:38 77.53490 14.02811 14157 ft 319 kts 353°
2026-05-04 20:39 77.55675 14.01101 13918 ft 318 kts 354°
2026-05-04 20:39 77.57861 13.99395 13637 ft 317 kts 354°
2026-05-04 20:39 77.60001 13.97717 13360 ft 316 kts 353°
2026-05-04 20:39 77.62170 13.96009 13078 ft 314 kts 353°
2026-05-04 20:40 77.64319 13.94311 12798 ft 313 kts 354°
2026-05-04 20:40 77.66471 13.92609 12525 ft 312 kts 354°
2026-05-04 20:40 77.68611 13.90899 12246 ft 311 kts 353°
2026-05-04 20:40 77.70738 13.89193 11974 ft 310 kts 353°
2026-05-04 20:41 77.72853 13.87493 11705 ft 304 kts 353°
2026-05-04 20:41 77.74881 13.85835 11428 ft 294 kts 353°
2026-05-04 20:41 77.76864 13.84213 11161 ft 285 kts 354°
2026-05-04 20:41 77.78795 13.82639 10926 ft 275 kts 354°
2026-05-04 20:42 77.80669 13.81115 10741 ft 272 kts 354°
2026-05-04 20:42 77.82527 13.79599 10604 ft 272 kts 354°
2026-05-04 20:42 77.84391 13.78072 10476 ft 271 kts 354°
2026-05-04 20:42 77.86254 13.76548 10352 ft 271 kts 354°
2026-05-04 20:43 77.88111 13.75027 10216 ft 270 kts 354°
2026-05-04 20:43 77.89940 13.73517 10091 ft 270 kts 354°
2026-05-04 20:43 77.91793 13.71983 9958 ft 270 kts 354°
2026-05-04 20:43 77.93639 13.70459 9821 ft 269 kts 354°
2026-05-04 20:44 77.95487 13.68942 9678 ft 268 kts 354°
2026-05-04 20:44 77.97328 13.67418 9472 ft 268 kts 354°
2026-05-04 20:44 77.99159 13.65887 9218 ft 267 kts 354°
2026-05-04 20:44 78.00991 13.64342 8947 ft 266 kts 354°
2026-05-04 20:45 78.02813 13.62801 8669 ft 265 kts 354°
2026-05-04 20:45 78.04624 13.61304 8396 ft 263 kts 356°
2026-05-04 20:45 78.06423 13.61442 8112 ft 257 kts 15°
2026-05-04 20:45 78.08047 13.64690 7851 ft 252 kts 31°
2026-05-04 20:46 78.09058 13.67486 7675 ft 251 kts 32°
2026-05-04 20:46 78.11048 13.73068 7315 ft 245 kts 32°
2026-05-04 20:46 78.12508 13.77117 7030 ft 239 kts 32°
2026-05-04 20:46 78.13933 13.81040 6751 ft 233 kts 32°
2026-05-04 20:47 78.14880 13.83631 6560 ft 229 kts 32°
2026-05-04 20:47 78.16239 13.87339 6259 ft 224 kts 32°
2026-05-04 20:47 78.17596 13.91037 5960 ft 222 kts 32°
2026-05-04 20:47 78.18932 13.94709 5661 ft 220 kts 32°
2026-05-04 20:48 78.20259 13.98328 5365 ft 218 kts 32°
2026-05-04 20:48 78.21582 14.01949 5067 ft 217 kts 32°
2026-05-04 20:48 78.22892 14.05558 4763 ft 214 kts 32°
2026-05-04 20:48 78.24165 14.09194 4464 ft 209 kts 35°
2026-05-04 20:49 78.25348 14.13118 4263 ft 204 kts 36°
2026-05-04 20:49 78.26526 14.17050 4249 ft 204 kts 36°
2026-05-04 20:49 78.27687 14.20965 4258 ft 196 kts 37°
2026-05-04 20:49 78.28768 14.24532 4262 ft 182 kts 36°
2026-05-04 20:50 78.29793 14.27973 4270 ft 183 kts 40°
2026-05-04 20:50 78.30484 14.33059 4246 ft 186 kts 73°
2026-05-04 20:50 78.30526 14.39506 4081 ft 184 kts 94°
2026-05-04 20:50 78.30246 14.45309 3953 ft 171 kts 101°
2026-05-04 20:51 78.29934 14.50784 3724 ft 161 kts 99°
2026-05-04 20:51 78.29643 14.56006 3479 ft 157 kts 99°
2026-05-04 20:51 78.29350 14.61317 3291 ft 166 kts 100°
2026-05-04 20:51 78.29045 14.66816 3265 ft 167 kts 100°
2026-05-04 20:52 78.28739 14.72321 3158 ft 167 kts 100°
2026-05-04 20:52 78.28435 14.77811 2954 ft 164 kts 100°
2026-05-04 20:52 78.28141 14.83095 2720 ft 156 kts 99°
2026-05-04 20:52 78.27849 14.88379 2498 ft 166 kts 100°
2026-05-04 20:53 78.27545 14.93851 2266 ft 166 kts 101°
2026-05-04 20:53 78.27246 14.99202 2053 ft 159 kts 101°
2026-05-04 20:53 78.26961 15.04326 1832 ft 149 kts 100°
2026-05-04 20:53 78.26702 15.08967 1605 ft 132 kts 99°
2026-05-04 20:54 78.26465 15.13229 1375 ft 128 kts 100°
2026-05-04 20:54 78.26230 15.17456 1168 ft 130 kts 101°
2026-05-04 20:54 78.25989 15.21785 981 ft 134 kts 103°
2026-05-04 20:54 78.25718 15.26206 796 ft 133 kts 107°
2026-05-04 20:55 78.25485 15.30367 580 ft 126 kts 103°
2026-05-04 20:55 78.25276 15.34538 418 ft 126 kts 106°
2026-05-04 20:55 78.25045 15.38723 265 ft 128 kts 106°
2026-05-04 20:55 78.24813 15.42960 120 ft 124 kts 105°
2026-05-04 20:56 78.24609 15.46573 95 ft 81 kts 105°
2026-05-04 20:56 78.24534 15.47944 97 ft 20 kts 107°
2026-05-04 20:56 78.24494 15.48633 94 ft 22 kts 105°
2026-05-04 20:56 78.24455 15.49370 94 ft 23 kts 104°
2026-05-04 20:57 78.24438 15.49694 95 ft 8 kts 100°
2026-05-04 20:57 78.24475 15.49902 96 ft 10 kts 18°
2026-05-04 20:57 78.24507 15.49950 93 ft 0 kts 15°
2026-05-04 20:59 78.24511 15.49955 93 ft 2 kts 15°
2026-05-04 21:00 78.24533 15.49985 94 ft 4 kts 15°
2026-05-04 21:00 78.24568 15.50014 96 ft 6 kts 347°
2026-05-04 21:00 78.24597 15.49820 93 ft 8 kts 294°
2026-05-04 21:00 78.24608 15.49522 94 ft 10 kts 250°
2026-05-04 21:01 78.24561 15.49386 96 ft 8 kts 299°
2026-05-04 21:01 78.24617 15.49309 94 ft 2 kts 52°
2026-05-04 21:01 78.24619 15.49380 96 ft 3 kts 82°
2026-05-04 21:01 78.24616 15.49514 94 ft 5 kts 103°
2026-05-04 21:02 78.24613 15.49578 95 ft 2 kts 107°
2026-05-04 21:02 78.24612 15.49593 95 ft 0 kts 107°